Location: Allos
(44.2333°N, 6.6333°E)
Time: 16:47:02
(UTC+00:00)

FENGYUN 1C DEB - Visible Passes

Search period start: 24 June 2021 00:00
Search period end: 04 July 2021 00:00
Orbit: 609 x 937 km, 98.5° (Epoch: 23 June)

Date Brightness Start Highest point End Pass type
(mag) Time Alt. Az. Time Alt. Az. Time Alt. Az.
24 Jun ? 20:53:35 10° WSW 20:55:55 13° W 20:58:20 10° WNW visible
25 Jun ? 20:16:20 10° SSW 20:20:54 25° W 20:25:42 10° NW visible
27 Jun ? 20:48:30 10° WSW 20:51:27 14° W 20:54:28 10° NW visible
28 Jun ? 20:11:39 10° SSW 20:16:28 28° W 20:21:30 10° NW visible
30 Jun ? 20:43:34 10° WSW 20:46:59 16° W 20:50:29 10° NW visible
01 Jul ? 20:07:00 10° SSW 20:12:03 30° W 20:17:16 10° NNW visible
03 Jul ? 20:38:44 10° SW 20:42:32 18° W 20:46:25 10° NW visible
